Weather History for KANB - May, 2012

Change the Weather History Date:

Friday, May 25, 2012

  Actual Average Record
Temperature  
Mean Temperature 77 °F 72 °F  
Max Temperature 91 °F 83 °F 96 °F (1904)
Min Temperature 63 °F 62 °F 47 °F (1979)
Cooling Degree Days 12    
Growing Degree Days 27 (Base 50)    
Moisture  
Dew Point 65 °F    
Average Humidity 68    
Maximum Humidity 100    
Minimum Humidity 36    
Precipitation  
Precipitation 0.00 in 0.13 in 1.46 in (1991)
Month to date precipitation 2.57 3.49  
Year to date precipitation 16.51 22.16  
Sea Level Pressure  
Sea Level Pressure 30.05 in    
Wind  
Wind Speed 3 mph (South)    
Max Wind Speed 8 mph    
Max Gust Speed 12 mph    
Visibility 8 miles    
Events      
T = Trace of Precipitation, MM = Missing Value Source: NWS Daily Summary

Daily Weather History Graph

Daily Weather History Graph

Search for Another Location

Airport or City:

Trip Planner

Search our weather history database for the weather conditions in past years. The results will help you decide how hot, cold, wet, or windy it might be!

Date:

Astronomy

May. 25, 2012 Rise Set
Actual Time 5:36 AM CDT 7:44 PM CDT
Civil Twilight 5:08 AM CDT 8:12 PM CDT
Nautical Twilight 4:34 AM CDT 8:47 PM CDT
Astronomical Twilight 3:57 AM CDT 9:24 PM CDT
Moon 9:31 AM CDT (5/25) 11:25 PM CDT (5/25)
Length of Visible Light 15h 04m
Length of Day
14h 07m
Waxing Crescent, 20% of the Moon is Illuminated
May 25
Waxing Crescent
May 28
First Quarter
Jun 4
Full
Jun 11
Last Quarter
Jun 19
New

Hourly Weather History & Observations

Time (CDT) Temp. Heat Index Dew Point Humidity Pressure Visibility Wind Dir Wind Speed Gust Speed Precip Events Conditions
12:53 AM 66.9 °F - 64.0 °F 90% 29.95 in 8.0 mi ENE 3.5 mph - N/A   Clear
1:53 AM 66.9 °F - 63.0 °F 87% 29.96 in 8.0 mi Calm Calm - N/A   Clear
2:53 AM 66.0 °F - 63.0 °F 90% 29.97 in 8.0 mi Calm Calm - N/A   Clear
3:53 AM 64.0 °F - 62.1 °F 93% 30.00 in 8.0 mi Calm Calm - N/A   Clear
4:53 AM 63.0 °F - 62.1 °F 97% 30.02 in 7.0 mi Calm Calm - N/A   Clear
5:53 AM 63.0 °F - 62.1 °F 97% 30.05 in 5.0 mi ESE 3.5 mph - N/A   Clear
6:53 AM 64.9 °F - 63.0 °F 93% 30.07 in 6.0 mi East 3.5 mph - N/A   Clear
7:53 AM 70.0 °F - 64.0 °F 81% 30.08 in 7.0 mi East 3.5 mph - N/A   Clear
8:53 AM 75.9 °F - 66.9 °F 74% 30.09 in 7.0 mi East 3.5 mph - N/A   Clear
9:53 AM 82.0 °F 84.9 °F 68.0 °F 62% 30.09 in 8.0 mi SSE 3.5 mph - N/A   Clear
10:53 AM 84.0 °F 85.8 °F 64.9 °F 53% 30.09 in 10.0 mi Variable 3.5 mph - N/A   Clear
11:53 AM 86.0 °F 88.2 °F 66.0 °F 51% 30.09 in 10.0 mi West 3.5 mph - N/A   Clear
12:53 PM 88.0 °F 89.3 °F 64.0 °F 45% 30.08 in 10.0 mi SW 3.5 mph - N/A   Clear
1:53 PM 90.0 °F 90.6 °F 63.0 °F 40% 30.06 in 10.0 mi Variable 3.5 mph - N/A   Clear
2:53 PM 91.0 °F 90.9 °F 61.0 °F 36% 30.05 in 10.0 mi Variable 4.6 mph - N/A   Clear
3:53 PM 90.0 °F 91.3 °F 64.0 °F 42% 30.05 in 10.0 mi SW 6.9 mph - N/A   Clear
4:53 PM 90.0 °F 91.3 °F 64.0 °F 42% 30.04 in 10.0 mi WSW 6.9 mph - N/A   Clear
5:53 PM 88.0 °F 90.3 °F 66.0 °F 48% 30.04 in 10.0 mi WSW 6.9 mph - N/A   Scattered Clouds
6:53 PM 84.9 °F 87.1 °F 66.0 °F 53% 30.05 in 10.0 mi WSW 3.5 mph - N/A   Clear
7:53 PM 78.1 °F - 68.0 °F 71% 30.06 in 8.0 mi Calm Calm - N/A   Clear
8:53 PM 75.0 °F - 68.0 °F 79% 30.06 in 9.0 mi Calm Calm - N/A   Clear
9:53 PM 73.0 °F - 68.0 °F 84% 30.07 in 8.0 mi Calm Calm - N/A   Clear
10:53 PM 71.1 °F - 68.0 °F 90% 30.08 in 7.0 mi Calm Calm - N/A   Clear
11:53 PM 71.1 °F - 68.0 °F 90% 30.09 in 6.0 mi Calm Calm - N/A   Clear